Wind_Speed
8 4 6 7 7 10 16 20 23 25 29 35 34 32 34 38 39 28 18 28 20 17 21 25 28 31 35 36 41 45 47 50 51 52 53 53 53 51 50 48 48 49 52 53
2 7 10 9 13 13 18 23 26 30 36 34 35 35 37 37 37 24 33 21 20 28 28 28 32 36 40 46 50 50 47 47 48 49 49 48 48 48 47 47 48 48 48 49
2 5 9 11 13 16 20 21 22 29 30 30 32 35 36 35 35 36 26 27 32 31 35 40 41 45 50 51 48 45 45 44 44 45 45 44 44 45 46 46 45 45 44 44
5 4 10 16 20 27 25 21 19 23 28 30 30 32 29 32 33 35 27 35 35 37 41 44 47 52 55 50 45 46 44 45 49 46 45 44 44 44 43 42 41 41 40 39
13 11 14 21 27 25 26 30 24 26 25 26 27 30 34 35 34 31 34 34 37 39 45 48 52 57 53 47 49 45 43 48 45 41 41 43 43 43 43 42 41 39 37 35
19 22 26 28 27 26 21 22 24 23 21 26 29 32 31 30 33 27 28 33 40 45 47 50 55 52 49 51 45 41 43 40 36 37 37 38 39 40 38 37 34 33 33 35
21 20 20 23 22 28 29 22 23 18 22 20 21 25 25 27 24 27 31 36 41 42 44 48 50 48 46 41 36 39 34 32 33 35 36 37 40 39 35 30 26 23 21 21
19 22 28 28 26 27 25 24 27 31 24 25 26 23 20 20 23 27 31 35 37 40 45 50 49 45 46 37 35 32 30 29 32 36 36 36 39 37 30 25 22 19 17 16
20 24 27 30 31 29 30 27 26 26 26 28 25 20 23 15 23 27 31 34 38 42 46 48 48 44 43 31 29 25 27 29 34 37 35 35 38 35 30 23 18 15 13 10
20 26 26 25 35 35 33 29 26 23 25 22 18 18 20 22 25 28 33 37 39 42 46 48 45 39 32 27 25 24 28 32 34 34 34 33 35 34 30 26 21 18 15 11
31 28 29 25 27 32 32 23 24 23 23 18 18 20 18 22 26 33 37 38 40 42 43 44 40 36 30 26 21 25 29 32 30 29 31 31 31 35 29 27 22 20 16 11
28 24 23 23 24 28 28 23 23 21 16 13 18 19 22 25 31 34 36 39 39 39 42 43 36 30 27 23 22 25 29 28 25 27 29 31 28 32 33 31 28 25 22 18
19 17 21 22 24 29 24 23 18 14 11 15 18 22 23 27 31 35 36 38 39 41 43 42 34 26 24 20 21 24 26 24 23 27 29 28 28 26 31 32 31 30 28 24
17 19 16 16 20 18 21 24 11 7 12 14 18 22 25 29 32 34 37 39 40 41 41 38 31 23 20 18 21 22 23 21 23 25 25 26 26 24 25 30 33 32 32 30
15 17 16 15 16 19 20 13 5 6 10 17 21 25 29 31 34 34 36 36 38 38 37 32 26 20 16 16 17 19 18 19 21 22 22 23 25 27 27 26 28 31 33 33
16 18 19 17 14 16 13 7 11 13 16 19 22 26 29 33 34 34 35 36 38 36 31 27 23 17 12 12 14 16 15 18 20 18 19 20 23 24 28 27 27 28 29 30
18 16 13 14 16 12 12 8 7 12 15 20 22 25 30 34 35 36 37 40 41 36 29 25 20 14 8 10 12 11 14 16 17 16 18 19 19 21 23 24 25 26 26 28
14 15 14 15 10 14 7 3 10 14 18 21 24 30 33 35 35 36 39 43 42 38 29 22 15 9 4 8 10 9 13 14 14 15 16 16 18 20 20 22 22 24 26 27
17 12 17 9 7 7 6 8 12 15 16 22 26 31 33 34 35 36 40 42 39 34 26 15 6 2 2 7 7 9 12 12 12 15 14 15 16 18 20 23 26 29 30 31
19 19 6 5 9 3 5 7 15 19 21 24 27 29 32 34 34 36 39 39 33 27 16 7 3 3 4 7 7 10 11 11 13 14 13 15 17 20 22 24 26 27 28 29
13 11 5 1 3 4 8 13 16 19 22 24 25 27 30 31 31 34 36 35 29 21 13 8 6 5 6 7 8 10 10 10 13 14 12 15 17 19 22 22 23 23 23 25
5 2 4 1 3 6 11 14 17 19 21 23 25 27 29 27 30 30 34 30 23 16 11 7 5 4 6 6 7 9 7 9 10 10 10 14 16 17 18 18 19 20 21 21
5 6 2 3 5 8 13 16 17 20 21 23 25 27 28 27 26 28 32 27 21 13 7 5 4 5 6 5 7 7 5 8 7 9 9 12 13 14 16 14 15 18 18 18
5 3 4 5 7 11 13 15 18 20 21 23 23 26 27 25 26 28 30 27 18 12 4 1 1 3 4 4 6 5 4 6 4 7 8 10 10 12 12 12 12 14 15 17
6 6 8 10 12 14 17 18 19 20 20 21 23 26 25 22 23 27 30 29 20 13 6 3 2 4 2 2 4 3 4 5 2 5 8 8 10 8 9 9 10 10 12 14
7 9 11 13 16 17 19 20 22 22 23 22 23 23 24 22 21 24 26 28 24 15 9 5 6 5 2 0 2 1 4 5 2 4 8 9 9 8 7 6 6 7 9 10
Wind_Direction
146 63 3 15 330 335 309 309 324 321 327 325 324 328 330 324 332 345 349 334 3 357 331 328 327 329 326 320 313 311 310 308 303 299 297 297 295 293 291 288 284 280 276 272
37 10 359 341 293 290 299 310 319 317 320 323 327 328 321 319 327 328 321 321 5 349 336 331 328 327 324 323 323 319 313 307 303 303 301 298 294 290 289 289 290 288 282 276
295 342 5 273 281 272 280 285 300 309 316 317 316 312 316 321 324 327 319 330 348 337 337 337 336 332 332 333 331 325 321 321 318 313 309 303 297 296 295 294 292 289 286 286
299 282 263 295 307 310 297 301 306 303 307 303 313 307 311 313 323 329 332 346 337 337 339 335 335 338 337 335 330 326 326 325 326 325 323 320 314 306 301 297 294 290 288 286
269 283 288 291 299 298 292 294 295 298 303 302 297 296 298 305 315 325 332 338 334 335 336 337 338 339 336 333 332 332 328 327 331 330 326 324 321 316 309 300 292 287 285 283
235 245 257 271 289 301 299 289 289 297 298 293 282 282 293 305 311 330 336 331 332 339 336 337 339 338 336 336 334 331 331 332 333 333 333 333 331 324 317 309 302 293 287 282
266 266 284 287 282 288 301 297 294 303 315 302 286 287 304 319 339 333 328 334 336 335 332 338 340 338 334 334 334 334 334 331 332 331 333 336 338 336 329 320 314 307 300 296
274 268 290 293 290 292 296 318 330 327 322 310 303 305 319 332 337 328 331 333 335 335 335 343 338 336 336 337 337 338 340 338 341 343 340 340 344 345 344 336 332 328 319 310
294 291 299 300 297 295 294 307 317 316 313 308 303 289 331 336 328 328 331 337 340 338 341 338 338 339 338 340 340 347 343 343 346 347 348 349 350 354 358 356 355 347 340 335
286 299 301 294 291 298 304 315 312 305 307 306 302 309 318 333 330 334 338 343 340 340 339 337 338 337 342 342 346 345 346 347 348 353 352 353 356 1 1 5 8 7 4 8
295 299 299 293 282 285 291 301 299 306 311 310 315 322 332 327 334 340 342 338 337 339 335 336 340 338 341 343 345 345 346 346 350 1 360 0 4 11 15 20 20 19 21 30
297 298 290 290 290 289 300 310 309 304 309 310 321 329 332 337 343 339 338 336 335 332 335 339 339 335 338 338 341 343 347 350 357 1 3 9 12 18 24 28 31 36 34 46
305 302 294 295 294 298 307 311 314 325 318 325 325 332 338 344 341 338 336 330 332 337 336 337 337 332 334 334 341 346 349 352 0 3 6 12 18 23 31 36 38 42 48 54
313 307 296 295 292 294 305 321 346 326 320 329 328 334 342 342 341 336 331 333 335 336 333 331 332 327 328 335 343 347 351 3 5 4 9 19 25 30 34 41 47 51 56 61
307 303 305 303 298 300 312 337 357 320 335 337 332 340 341 341 337 335 332 332 331 331 328 325 328 323 323 340 349 355 1 8 6 9 19 26 33 40 45 46 50 55 60 65
305 306 304 302 284 290 307 298 316 322 340 330 337 339 339 337 338 336 333 329 329 328 326 324 329 317 320 345 350 1 8 6 7 14 27 32 38 43 50 53 58 60 64 68
314 313 300 287 276 278 284 284 294 317 331 332 337 335 335 339 341 336 332 330 330 330 325 323 324 313 326 345 347 3 6 10 22 31 39 41 44 49 56 58 60 65 68 72
320 330 319 306 278 269 246 323 318 325 332 331 337 340 340 341 339 335 332 331 333 329 326 318 324 314 334 348 354 18 16 24 38 34 38 44 53 58 61 65 67 69 72 74
266 322 310 286 273 291 32 329 317 323 338 336 340 340 339 341 338 335 334 335 336 336 333 325 323 312 14 359 17 30 21 29 34 39 47 55 64 68 70 73 77 77 77 78
318 332 288 252 269 291 308 301 322 336 340 340 341 341 342 341 338 339 335 338 342 350 1 16 66 113 40 19 43 29 23 35 40 50 63 70 74 79 81 79 78 79 80 80
280 306 162 237 340 323 340 336 329 332 339 340 342 345 344 342 342 337 336 345 353 2 21 49 93 92 32 34 40 30 35 44 38 56 65 80 84 86 85 85 83 80 77 77
157 125 127 1 297 313 329 335 335 334 333 339 345 350 347 345 339 340 344 351 357 10 29 57 75 54 24 39 35 31 50 32 47 69 80 88 90 92 90 86 84 82 80 80
34 69 53 4 343 334 334 332 332 333 338 342 348 349 347 343 345 348 350 354 355 353 21 88 61 30 27 37 29 32 39 33 61 82 99 100 104 103 95 91 91 87 85 85
55 63 40 5 332 329 333 329 330 336 340 344 345 348 347 349 352 353 355 357 352 353 22 82 42 9 28 31 18 31 21 22 74 101 115 118 117 112 105 100 98 96 95 99
46 20 349 341 332 329 331 334 336 338 337 340 343 347 345 342 351 357 358 358 351 344 332 308 296 326 7 46 9 28 3 4 72 133 142 141 132 123 115 113 110 105 106 115
11 349 335 340 335 333 333 333 333 334 336 338 338 343 340 334 336 341 348 355 355 345 333 305 301 307 304 278 347 48 347 344 282 181 167 165 157 153 136 129 129 119 119 138
Height
5914 5915 5913 5911 5909 5908 5907 5905 5902 5897 5896 5891 5887 5883 5879 5876 5871 5872 5868 5866 5860 5858 5856 5851 5845 5839 5833 5828 5822 5815 5808 5800 5791 5783 5776 5768 5761 5755 5749 5745 5741 5738 5734 5732
5912 5911 5911 5910 5907 5907 5905 5902 5899 5894 5892 5887 5880 5875 5872 5870 5868 5868 5864 5858 5855 5854 5850 5846 5839 5832 5825 5818 5811 5802 5795 5787 5779 5771 5764 5755 5748 5742 5736 5731 5725 5721 5717 5714
5908 5910 5909 5909 5908 5907 5902 5902 5902 5895 5888 5884 5879 5873 5867 5866 5864 5861 5858 5851 5850 5846 5842 5834 5827 5821 5815 5804 5795 5788 5780 5773 5766 5758 5750 5742 5735 5728 5722 5715 5710 5706 5702 5698
5907 5907 5907 5906 5906 5903 5903 5901 5901 5897 5887 5883 5878 5870 5868 5865 5862 5859 5855 5848 5844 5839 5831 5824 5817 5809 5802 5794 5786 5778 5769 5761 5755 5746 5737 5729 5722 5715 5708 5701 5695 5691 5687 5684
5908 5907 5906 5904 5902 5899 5899 5897 5898 5894 5888 5881 5876 5871 5865 5862 5859 5856 5850 5843 5839 5833 5824 5816 5808 5799 5792 5784 5777 5768 5761 5754 5746 5738 5730 5721 5711 5702 5694 5688 5682 5678 5675 5672
5906 5904 5903 5903 5898 5895 5892 5892 5892 5889 5883 5877 5873 5868 5863 5859 5856 5852 5845 5841 5834 5825 5817 5809 5803 5793 5784 5777 5770 5763 5756 5748 5741 5733 5725 5715 5705 5695 5685 5676 5670 5665 5662 5659
5904 5903 5900 5898 5897 5892 5889 5888 5885 5883 5876 5871 5867 5862 5860 5857 5853 5849 5843 5836 5828 5822 5814 5809 5797 5789 5783 5775 5767 5761 5753 5746 5739 5731 5720 5710 5699 5688 5677 5669 5662 5657 5653 5651
5900 5900 5898 5892 5890 5887 5883 5882 5877 5872 5869 5865 5861 5859 5857 5853 5849 5844 5839 5833 5826 5818 5811 5802 5794 5787 5779 5771 5765 5758 5751 5744 5737 5727 5717 5707 5696 5684 5674 5665 5658 5653 5650 5646
5898 5895 5891 5886 5881 5881 5878 5879 5875 5869 5864 5860 5858 5856 5856 5851 5847 5842 5835 5829 5821 5813 5804 5798 5790 5781 5774 5768 5763 5756 5750 5742 5734 5725 5715 5705 5695 5683 5673 5665 5658 5652 5648 5644
5894 5892 5886 5882 5875 5872 5872 5873 5870 5866 5862 5858 5855 5854 5852 5848 5843 5837 5830 5823 5816 5808 5801 5793 5786 5779 5773 5766 5761 5755 5748 5740 5733 5724 5715 5706 5696 5685 5675 5666 5659 5653 5648 5644
5889 5887 5881 5877 5873 5870 5868 5869 5864 5861 5858 5855 5853 5852 5849 5844 5838 5830 5824 5819 5812 5805 5799 5791 5782 5776 5770 5765 5759 5753 5746 5740 5733 5725 5717 5708 5699 5689 5679 5669 5662 5655 5649 5645
5881 5879 5874 5872 5869 5863 5863 5862 5859 5856 5855 5853 5851 5849 5844 5838 5832 5827 5822 5814 5808 5803 5794 5786 5779 5773 5768 5763 5759 5752 5746 5739 5733 5726 5718 5710 5701 5692 5683 5674 5666 5660 5653 5649
5875 5873 5870 5867 5865 5859 5859 5856 5855 5854 5852 5850 5847 5844 5840 5835 5829 5823 5817 5811 5804 5796 5788 5781 5776 5771 5767 5762 5758 5752 5746 5740 5734 5727 5719 5712 5704 5698 5690 5681 5674 5667 5661 5656
5872 5868 5867 5864 5859 5857 5854 5853 5853 5852 5851 5847 5844 5840 5836 5831 5826 5821 5813 5805 5798 5792 5784 5778 5773 5769 5765 5761 5757 5751 5746 5740 5735 5728 5722 5715 5708 5702 5696 5689 5682 5676 5670 5665
5868 5864 5861 5858 5854 5852 5851 5849 5850 5850 5848 5844 5840 5836 5832 5828 5823 5816 5809 5802 5796 5789 5782 5775 5770 5766 5763 5760 5756 5751 5746 5741 5736 5731 5725 5719 5713 5707 5701 5696 5691 5686 5680 5676
5864 5860 5856 5853 5852 5850 5848 5848 5848 5847 5845 5841 5838 5834 5829 5825 5819 5812 5805 5799 5792 5785 5778 5771 5766 5763 5761 5759 5755 5751 5747 5743 5738 5733 5728 5723 5718 5713 5708 5703 5698 5694 5689 5685
5858 5856 5854 5850 5849 5849 5848 5848 5847 5846 5844 5840 5837 5833 5827 5821 5815 5808 5801 5793 5785 5778 5772 5766 5762 5761 5759 5757 5754 5751 5748 5744 5739 5736 5731 5727 5722 5718 5714 5710 5707 5702 5698 5694
5855 5853 5852 5849 5847 5847 5846 5846 5844 5844 5841 5838 5833 5828 5822 5817 5811 5804 5796 5788 5779 5770 5765 5761 5759 5758 5758 5756 5754 5751 5749 5745 5742 5738 5734 5731 5726 5723 5719 5716 5713 5710 5707 5704
5850 5848 5847 5847 5846 5847 5844 5844 5844 5843 5840 5835 5831 5826 5820 5814 5808 5801 5792 5784 5774 5765 5758 5756 5756 5757 5758 5756 5754 5752 5750 5747 5744 5741 5737 5734 5731 5728 5725 5722 5720 5717 5715 5713
5846 5845 5846 5844 5846 5846 5846 5845 5842 5840 5837 5832 5828 5823 5818 5812 5805 5798 5790 5782 5773 5764 5758 5755 5756 5758 5758 5757 5755 5753 5751 5748 5746 5743 5740 5738 5735 5733 5731 5729 5727 5725 5723 5721
5845 5846 5845 5846 5846 5844 5843 5842 5840 5838 5836 5831 5826 5821 5815 5808 5803 5797 5789 5781 5772 5765 5761 5759 5759 5760 5759 5758 5756 5754 5752 5750 5748 5746 5744 5742 5740 5738 5737 5736 5734 5733 5731 5729
5843 5844 5845 5847 5845 5845 5842 5840 5839 5836 5832 5827 5823 5818 5813 5807 5802 5795 5787 5780 5773 5768 5764 5763 5763 5762 5761 5759 5758 5756 5754 5752 5750 5748 5747 5746 5744 5744 5742 5741 5740 5738 5737 5736
5844 5845 5846 5847 5845 5844 5841 5838 5837 5832 5828 5824 5820 5816 5811 5805 5799 5793 5786 5779 5774 5770 5767 5765 5764 5763 5762 5761 5759 5757 5756 5754 5752 5751 5750 5749 5749 5748 5747 5747 5745 5743 5742 5741
5845 5845 5845 5846 5844 5842 5840 5837 5833 5830 5826 5821 5818 5814 5808 5803 5798 5792 5786 5780 5775 5771 5768 5767 5765 5764 5762 5761 5760 5758 5757 5755 5754 5753 5753 5752 5752 5752 5750 5750 5750 5748 5747 5746
5846 5845 5844 5843 5842 5840 5836 5833 5830 5827 5823 5819 5815 5811 5807 5802 5798 5793 5787 5781 5776 5772 5770 5768 5766 5764 5763 5761 5760 5759 5758 5756 5755 5754 5754 5754 5754 5755 5754 5753 5753 5752 5751 5751
5846 5845 5844 5841 5839 5836 5833 5830 5827 5823 5819 5816 5812 5809 5805 5800 5797 5792 5787 5782 5777 5773 5770 5768 5766 5764 5762 5761 5760 5759 5758 5756 5755 5755 5755 5755 5755 5755 5755 5756 5756 5755 5754 5753